| time (UTC) | temp F | wind direction | speed knots | gust knots | rain 1hr in | rain 24hr in | rain mn in | humidity % | barometer mb |
| 20260905224526 | 98 | 350 | 0.9 | 3.5 | 0.00 | 0.00 | 0.00 | 61 | 1011.3 |
| 20260905224024 | 98 | 274 | 0.9 | 7.0 | 0.00 | 0.00 | 0.00 | 62 | 1011.3 |
| 20260905223526 | 98 | 276 | 4.3 | 7.0 | 0.00 | 0.00 | 0.00 | 61 | 1011.2 |
| 20260905223031 | 97 | 257 | 2.6 | 3.5 | 0.00 | 0.00 | 0.00 | 60 | 1011.1 |
| 20260905222521 | 97 | 257 | 0.9 | 6.1 | 0.00 | 0.00 | 0.00 | 60 | 1011.2 |
| 20260905222020 | 97 | 257 | 2.6 | 6.1 | 0.00 | 0.00 | 0.00 | 59 | 1011.1 |
| 20260905221521 | 98 | 261 | 2.6 | 7.0 | 0.00 | 0.00 | 0.00 | 58 | 1011.2 |
| 20260905221021 | 98 | 271 | 2.6 | 7.0 | 0.00 | 0.00 | 0.00 | 57 | 1011.0 |
| 20260905220523 | 98 | 258 | 2.6 | 10.4 | 0.00 | 0.00 | 0.00 | 56 | 1011.0 |
| 20260905220019 | 99 | 282 | 6.1 | 11.3 | 0.00 | 0.00 | 0.00 | 55 | 1011.1 |
| 20260905215522 | 100 | 263 | 4.3 | 9.6 | 0.00 | 0.00 | 0.00 | 56 | 1011.1 |
| 20260905215020 | 100 | 268 | 5.2 | 7.8 | 0.00 | 0.00 | 0.00 | 55 | 1011.1 |
| 20260905214517 | 100 | 263 | 5.2 | 10.4 | 0.00 | 0.00 | 0.00 | 56 | 1011.1 |
| 20260905214016 | 100 | 288 | 4.3 | 9.6 | 0.00 | 0.00 | 0.00 | 56 | 1011.1 |
| 20260905213515 | 100 | 291 | 3.5 | 9.6 | 0.00 | 0.00 | 0.00 | 56 | 1011.1 |
| 20260905213014 | 100 | 282 | 5.2 | 9.6 | 0.00 | 0.00 | 0.00 | 56 | 1011.1 |
| 20260905212511 | 100 | 319 | 4.3 | 8.7 | 0.00 | 0.00 | 0.00 | 56 | 1011.1 |
| 20260905212010 | 100 | 280 | 3.5 | 9.6 | 0.00 | 0.00 | 0.00 | 56 | 1011.2 |
| 20260905211507 | 100 | 254 | 5.2 | 10.4 | 0.00 | 0.00 | 0.00 | 57 | 1011.2 |
| 20260905211006 | 100 | 269 | 5.2 | 10.4 | 0.00 | 0.00 | 0.00 | 58 | 1011.2 |
| 20260905210505 | 99 | 12 | 0.9 | 4.3 | 0.00 | 0.00 | 0.00 | 59 | 1011.2 |
| 20260905210004 | 98 | 339 | 2.6 | 7.8 | 0.00 | 0.00 | 0.00 | 57 | 1011.4 |
| 20260905205504 | 97 | 288 | 0.9 | 7.0 | 0.00 | 0.00 | 0.00 | 59 | 1011.4 |
| 20260905205003 | 97 | 282 | 1.7 | 7.0 | 0.00 | 0.00 | 0.00 | 58 | 1011.5 |
| 20260905204503 | 97 | 292 | 2.6 | 6.1 | 0.00 | 0.00 | 0.00 | 59 | 1011.7 |
| 20260905204003 | 97 | 293 | 0.9 | 2.6 | 0.00 | 0.00 | 0.00 | 60 | 1011.6 |
| 20260905203502 | 97 | 293 | 0.9 | 4.3 | 0.00 | 0.00 | 0.00 | 60 | 1011.7 |
| 20260905203001 | 98 | 293 | 1.7 | 6.1 | 0.00 | 0.00 | 0.00 | 60 | 1011.9 |
| 20260905202600 | 98 | 289 | 2.6 | 6.1 | 0.00 | 0.00 | 0.00 | 59 | 1011.9 |
| 20260905202100 | 98 | 279 | 1.7 | 6.1 | 0.00 | 0.00 | 0.00 | 60 | 1011.9 |
| 20260905201559 | 98 | 277 | 2.6 | 6.1 | 0.00 | 0.00 | 0.00 | 59 | 1012.0 |
| 20260905201059 | 99 | 275 | 0.9 | 7.8 | 0.00 | 0.00 | 0.00 | 58 | 1012.0 |
| 20260905200557 | 99 | 254 | 3.5 | 7.8 | 0.00 | 0.00 | 0.00 | 59 | 1012.1 |
| 20260905200059 | 99 | 283 | 1.7 | 8.7 | 0.00 | 0.00 | 0.00 | 58 | 1012.1 |
| 20260905195555 | 99 | 292 | 2.6 | 12.2 | 0.00 | 0.00 | 0.00 | 59 | 1012.2 |
| 20260905195058 | 99 | 269 | 7.0 | 12.2 | 0.00 | 0.00 | 0.00 | 59 | 1012.2 |
| 20260905194554 | 98 | 355 | 4.3 | 11.3 | 0.00 | 0.00 | 0.00 | 59 | 1012.2 |
| 20260905194051 | 97 | 319 | 2.6 | 7.0 | 0.00 | 0.00 | 0.00 | 60 | 1012.2 |
| 20260905193553 | 97 | 317 | 2.6 | 7.8 | 0.00 | 0.00 | 0.00 | 61 | 1012.3 |
| 20260905193050 | 97 | 333 | 2.6 | 7.8 | 0.00 | 0.00 | 0.00 | 60 | 1012.5 |
| 20260905192549 | 97 | 279 | 4.3 | 7.8 | 0.00 | 0.00 | 0.00 | 62 | 1012.6 |
| 20260905192047 | 97 | 321 | 0.0 | 3.5 | 0.00 | 0.00 | 0.00 | 62 | 1012.7 |
| 20260905191547 | 97 | 5 | 0.9 | 3.5 | 0.00 | 0.00 | 0.00 | 63 | 1012.8 |
| 20260905191046 | 97 | 5 | 1.7 | 3.5 | 0.00 | 0.00 | 0.00 | 65 | 1012.8 |
| 20260905190545 | 97 | 360 | 0.0 | 4.3 | 0.00 | 0.00 | 0.00 | 63 | 1012.9 |
| 20260905190052 | 97 | 360 | 1.7 | 5.2 | 0.00 | 0.00 | 0.00 | 63 | 1013.0 |
| 20260905185543 | 97 | 326 | 2.6 | 5.2 | 0.00 | 0.00 | 0.00 | 63 | 1013.0 |
| 20260905185041 | 97 | 338 | 1.7 | 5.2 | 0.00 | 0.00 | 0.00 | 63 | 1013.0 |
| 20260905184553 | 97 | 28 | 2.6 | 7.8 | 0.00 | 0.00 | 0.00 | 64 | 1013.1 |
| 20260905184039 | 97 | 317 | 1.7 | 7.0 | 0.00 | 0.00 | 0.00 | 63 | 1013.2 |
| 20260905183539 | 97 | 5 | 1.7 | 4.3 | 0.00 | 0.00 | 0.00 | 63 | 1013.2 |
| 20260905183043 | 97 | 18 | 2.6 | 6.1 | 0.00 | 0.00 | 0.00 | 63 | 1013.4 |
| 20260905182535 | 97 | 297 | 2.6 | 6.1 | 0.00 | 0.00 | 0.00 | 65 | 1013.5 |
| 20260905182034 | 96 | 316 | 0.9 | 3.5 | 0.00 | 0.00 | 0.00 | 66 | 1013.7 |
| 20260905181533 | 95 | 314 | 1.7 | 4.3 | 0.00 | 0.00 | 0.00 | 67 | 1013.7 |
| 20260905181032 | 95 | 313 | 0.9 | 9.6 | 0.00 | 0.00 | 0.00 | 66 | 1013.6 |
| 20260905180532 | 96 | 342 | 3.5 | 9.6 | 0.00 | 0.00 | 0.00 | 66 | 1013.6 |
| 20260905180030 | 97 | 298 | 2.6 | 6.1 | 0.00 | 0.00 | 0.00 | 63 | 1013.5 |
| 20260905175531 | 97 | 59 | 2.6 | 7.0 | 0.00 | 0.00 | 0.00 | 66 | 1013.7 |
| 20260905175030 | 96 | 360 | 0.9 | 8.7 | 0.00 | 0.00 | 0.00 | 64 | 1013.7 |
| 20260905174527 | 96 | 315 | 2.6 | 8.7 | 0.00 | 0.00 | 0.00 | 64 | 1014.0 |
| 20260905174024 | 96 | 311 | 0.9 | 4.3 | 0.00 | 0.00 | 0.00 | 66 | 1014.0 |
| 20260905173524 | 96 | 311 | 1.7 | 5.2 | 0.00 | 0.00 | 0.00 | 64 | 1014.1 |
| 20260905173022 | 96 | 346 | 2.6 | 5.2 | 0.00 | 0.00 | 0.00 | 65 | 1014.2 |
| 20260905172520 | 96 | 360 | 1.7 | 7.0 | 0.00 | 0.00 | 0.00 | 65 | 1014.3 |
| 20260905172018 | 96 | 21 | 2.6 | 6.1 | 0.00 | 0.00 | 0.00 | 64 | 1014.2 |
| 20260905171517 | 96 | 350 | 1.7 | 7.0 | 0.00 | 0.00 | 0.00 | 64 | 1014.3 |
| 20260905171017 | 96 | 313 | 2.6 | 7.0 | 0.00 | 0.00 | 0.00 | 64 | 1014.3 |
| 20260905170513 | 96 | 339 | 2.6 | 8.7 | 0.00 | 0.00 | 0.00 | 65 | 1014.4 |
| 20260905170012 | 96 | 28 | 5.2 | 8.7 | 0.00 | 0.00 | 0.00 | 65 | 1014.3 |
| 20260905165511 | 95 | 309 | 2.6 | 7.8 | 0.00 | 0.00 | 0.00 | 65 | 1014.4 |
| 20260905165009 | 95 | 360 | 4.3 | 7.8 | 0.00 | 0.00 | 0.00 | 65 | 1014.4 |
| 20260905164508 | 95 | 259 | 0.9 | 6.1 | 0.00 | 0.00 | 0.00 | 68 | 1014.5 |
| 20260905164007 | 94 | 254 | 1.7 | 7.0 | 0.00 | 0.00 | 0.00 | 68 | 1014.5 |
| 20260905163507 | 95 | 311 | 2.6 | 7.8 | 0.00 | 0.00 | 0.00 | 67 | 1014.6 |
| 20260905163009 | 96 | 244 | 3.5 | 8.7 | 0.00 | 0.00 | 0.00 | 67 | 1014.5 |
| 20260905162504 | 95 | 269 | 1.7 | 8.7 | 0.00 | 0.00 | 0.00 | 67 | 1014.5 |
| 20260905162001 | 95 | 22 | 1.7 | 4.3 | 0.00 | 0.00 | 0.00 | 68 | 1014.6 |
| 20260905161600 | 95 | 24 | 2.6 | 7.8 | 0.00 | 0.00 | 0.00 | 67 | 1014.6 |
| 20260905161058 | 95 | 348 | 2.6 | 7.8 | 0.00 | 0.00 | 0.00 | 67 | 1014.7 |
| 20260905160557 | 95 | 284 | 2.6 | 7.0 | 0.00 | 0.00 | 0.00 | 68 | 1014.7 |
| 20260905160106 | 95 | 328 | 1.7 | 7.0 | 0.00 | 0.00 | 0.00 | 70 | 1014.7 |
| 20260905155553 | 94 | 289 | 0.9 | 8.7 | 0.00 | 0.00 | 0.00 | 69 | 1014.7 |
| 20260905155052 | 94 | 292 | 6.1 | 8.7 | 0.00 | 0.00 | 0.00 | 70 | 1014.8 |
| 20260905154551 | 94 | 337 | 2.6 | 7.0 | 0.00 | 0.00 | 0.00 | 71 | 1014.9 |
| 20260905154049 | 94 | 242 | 1.7 | 7.0 | 0.00 | 0.00 | 0.00 | 72 | 1014.9 |
| 20260905153547 | 93 | 254 | 2.6 | 7.0 | 0.00 | 0.00 | 0.00 | 72 | 1015.0 |
| 20260905153056 | 93 | 5 | 2.6 | 6.1 | 0.00 | 0.00 | 0.00 | 72 | 1015.0 |
| 20260905152545 | 93 | 360 | 2.6 | 6.1 | 0.00 | 0.00 | 0.00 | 72 | 1015.0 |
| 20260905152043 | 93 | 291 | 1.7 | 6.1 | 0.00 | 0.00 | 0.00 | 74 | 1015.0 |
| 20260905151543 | 92 | 313 | 2.6 | 6.1 | 0.00 | 0.00 | 0.00 | 75 | 1015.0 |
| 20260905151038 | 92 | 288 | 2.6 | 6.1 | 0.00 | 0.00 | 0.00 | 75 | 1015.1 |
| 20260905150538 | 92 | 290 | 2.6 | 6.1 | 0.00 | 0.00 | 0.00 | 76 | 1015.2 |
| 20260905150037 | 92 | 296 | 1.7 | 6.1 | 0.00 | 0.00 | 0.00 | 77 | 1015.2 |
| 20260905145535 | 91 | 259 | 2.6 | 7.0 | 0.00 | 0.00 | 0.00 | 76 | 1015.2 |
| 20260905145033 | 91 | 278 | 2.6 | 7.0 | 0.00 | 0.00 | 0.00 | 77 | 1015.2 |
| 20260905144532 | 91 | 290 | 4.3 | 7.0 | 0.00 | 0.00 | 0.00 | 77 | 1015.3 |
| 20260905144030 | 90 | 263 | 2.6 | 7.8 | 0.00 | 0.00 | 0.00 | 79 | 1015.2 |
| 20260905143529 | 90 | 263 | 4.3 | 7.8 | 0.00 | 0.00 | 0.00 | 77 | 1015.1 |
| 20260905143032 | 90 | 283 | 5.2 | 7.8 | 0.00 | 0.00 | 0.00 | 78 | 1015.2 |
| 20260905142532 | 89 | 277 | 5.2 | 7.8 | 0.00 | 0.00 | 0.00 | 78 | 1015.2 |
| 20260905142027 | 89 | 291 | 4.3 | 7.8 | 0.00 | 0.00 | 0.00 | 78 | 1015.2 |
| 20260905141526 | 89 | 292 | 4.3 | 7.8 | 0.00 | 0.00 | 0.00 | 80 | 1015.2 |
| 20260905141024 | 88 | 327 | 5.2 | 7.8 | 0.00 | 0.00 | 0.00 | 82 | 1015.2 |
| 20260905140522 | 88 | 175 | 0.9 | 2.6 | 0.00 | 0.00 | 0.00 | 85 | 1015.2 |
| 20260905140021 | 87 | 173 | 0.0 | 1.7 | 0.00 | 0.00 | 0.00 | 87 | 1015.2 |
| 20260905135520 | 87 | 173 | 0.0 | 1.7 | 0.00 | 0.00 | 0.00 | 89 | 1015.1 |
| 20260905135019 | 86 | 173 | 0.0 | 0.0 | 0.00 | 0.00 | 0.00 | 91 | 1015.3 |
| 20260905134522 | 85 | 173 | 0.0 | 1.7 | 0.00 | 0.00 | 0.00 | 92 | 1015.2 |
| 20260905134015 | 84 | 173 | 0.0 | 1.7 | 0.00 | 0.00 | 0.00 | 93 | 1015.2 |
| 20260905133513 | 83 | 173 | 0.0 | 0.9 | 0.00 | 0.00 | 0.00 | 94 | 1015.3 |
| 20260905133018 | 82 | 173 | 0.0 | 0.9 | 0.00 | 0.00 | 0.00 | 95 | 1015.3 |
| 20260905132511 | 81 | 173 | 0.0 | 1.7 | 0.00 | 0.00 | 0.00 | 96 | 1015.2 |
| 20260905132009 | 81 | 173 | 0.0 | 1.7 | 0.00 | 0.00 | 0.00 | 97 | 1015.3 |
| 20260905131514 | 80 | 173 | 0.0 | 2.6 | 0.00 | 0.00 | 0.00 | 99 | 1015.3 |
| 20260905131009 | 80 | 173 | 0.9 | 2.6 | 0.00 | 0.00 | 0.00 | 99 | 1015.2 |
| 20260905130504 | 79 | 173 | 0.9 | 1.7 | 0.00 | 0.00 | 0.00 | 100 | 1015.3 |
| 20260905130011 | 78 | 173 | 0.0 | 0.9 | 0.00 | 0.00 | 0.00 | 100 | 1015.3 |
| 20260905125502 | 77 | 173 | 0.0 | 0.0 | 0.00 | 0.00 | 0.00 | 100 | 1015.3 |
| 20260905125001 | 76 | 173 | 0.0 | 0.0 | 0.00 | 0.00 | 0.00 | 100 | 1015.3 |
| 20260905124600 | 76 | 173 | 0.0 | 0.0 | 0.00 | 0.00 | 0.00 | 100 | 1015.3 |
| 20260905124058 | 75 | 173 | 0.0 | 0.9 | 0.00 | 0.00 | 0.00 | 100 | 1015.4 |
| 20260905123558 | 74 | 173 | 0.0 | 0.9 | 0.00 | 0.00 | 0.00 | 100 | 1015.3 |
| 20260905123059 | 73 | 173 | 0.0 | 0.0 | 0.00 | 0.00 | 0.00 | 100 | 1015.3 |
| 20260905122557 | 73 | 173 | 0.0 | 0.0 | 0.00 | 0.00 | 0.00 | 100 | 1015.2 |
| 20260905122057 | 72 | 173 | 0.0 | 0.0 | 0.00 | 0.00 | 0.00 | 100 | 1015.2 |
| 20260905121556 | 72 | 173 | 0.0 | 0.9 | 0.00 | 0.00 | 0.00 | 100 | 1015.2 |
| 20260905121056 | 71 | 173 | 0.0 | 0.9 | 0.00 | 0.00 | 0.00 | 100 | 1015.2 |
| 20260905120600 | 71 | 173 | 0.0 | 0.0 | 0.00 | 0.00 | 0.00 | 100 | 1015.1 |
| 20260905120106 | 71 | 173 | 0.0 | 0.0 | 0.00 | 0.00 | 0.00 | 100 | 1015.1 |
| 20260905115559 | 70 | 173 | 0.0 | 0.0 | 0.00 | 0.00 | 0.00 | 100 | 1015.1 |
| 20260905115056 | 70 | 173 | 0.0 | 0.0 | 0.00 | 0.00 | 0.00 | 100 | 1015.0 |
| 20260905114555 | 70 | 173 | 0.0 | 0.0 | 0.00 | 0.00 | 0.00 | 100 | 1015.0 |
| 20260905114054 | 70 | 173 | 0.0 | 0.0 | 0.00 | 0.00 | 0.00 | 100 | 1015.0 |
| 20260905113554 | 70 | 173 | 0.0 | 0.0 | 0.00 | 0.00 | 0.00 | 100 | 1015.0 |
| 20260905113052 | 70 | 173 | 0.0 | 0.0 | 0.00 | 0.00 | 0.00 | 100 | 1014.9 |
| 20260905112553 | 70 | 173 | 0.0 | 0.0 | 0.00 | 0.00 | 0.00 | 100 | 1014.9 |
| 20260905112052 | 70 | 173 | 0.0 | 0.0 | 0.00 | 0.00 | 0.00 | 100 | 1014.9 |
| 20260905111608 | 70 | 173 | 0.0 | 0.0 | 0.00 | 0.00 | 0.00 | 100 | 1014.9 |
| 20260905111052 | 70 | 173 | 0.0 | 0.0 | 0.00 | 0.00 | 0.00 | 100 | 1014.8 |
| 20260905110555 | 70 | 173 | 0.0 | 0.0 | 0.00 | 0.00 | 0.00 | 100 | 1014.8 |
| 20260905110056 | 70 | 173 | 0.0 | 0.0 | 0.00 | 0.00 | 0.00 | 100 | 1014.7 |
| 20260905105550 | 70 | 173 | 0.0 | 0.9 | 0.00 | 0.00 | 0.00 | 100 | 1014.6 |
| 20260905105049 | 70 | 173 | 0.0 | 0.9 | 0.00 | 0.00 | 0.00 | 100 | 1014.6 |
| 20260905104548 | 70 | 173 | 0.0 | 0.0 | 0.00 | 0.00 | 0.00 | 100 | 1014.6 |
| 20260905104049 | 70 | 173 | 0.0 | 0.0 | 0.00 | 0.00 | 0.00 | 100 | 1014.5 |
| 20260905103548 | 70 | 173 | 0.0 | 0.0 | 0.00 | 0.00 | 0.00 | 100 | 1014.4 |
| 20260905103048 | 70 | 173 | 0.0 | 0.0 | 0.00 | 0.00 | 0.00 | 100 | 1014.4 |
| 20260905102548 | 70 | 173 | 0.0 | 0.0 | 0.00 | 0.00 | 0.00 | 100 | 1014.3 |
| 20260905102146 | 70 | 173 | 0.0 | 0.0 | 0.00 | 0.00 | 0.00 | 100 | 1014.2 |
| 20260905101549 | 70 | 173 | 0.0 | 0.0 | 0.00 | 0.00 | 0.00 | 100 | 1014.3 |
| 20260905101045 | 71 | 173 | 0.0 | 0.0 | 0.00 | 0.00 | 0.00 | 100 | 1014.2 |
| 20260905100544 | 71 | 173 | 0.0 | 0.0 | 0.00 | 0.00 | 0.00 | 100 | 1014.2 |
| 20260905100046 | 71 | 173 | 0.0 | 0.0 | 0.00 | 0.00 | 0.00 | 100 | 1014.2 |
| 20260905095543 | 71 | 173 | 0.0 | 0.0 | 0.00 | 0.00 | 0.00 | 100 | 1014.2 |
| 20260905095044 | 71 | 173 | 0.0 | 0.0 | 0.00 | 0.00 | 0.00 | 100 | 1014.1 |
| 20260905094544 | 71 | 173 | 0.0 | 0.0 | 0.00 | 0.00 | 0.00 | 100 | 1014.2 |
| 20260905094042 | 71 | 173 | 0.0 | 0.0 | 0.00 | 0.00 | 0.00 | 100 | 1014.1 |
| 20260905093542 | 71 | 173 | 0.0 | 0.0 | 0.00 | 0.00 | 0.00 | 100 | 1014.1 |
| 20260905093043 | 72 | 173 | 0.0 | 0.0 | 0.00 | 0.00 | 0.00 | 100 | 1014.0 |
| 20260905092543 | 71 | 173 | 0.0 | 0.0 | 0.00 | 0.00 | 0.00 | 100 | 1013.9 |
| 20260905092044 | 71 | 173 | 0.0 | 0.0 | 0.00 | 0.00 | 0.00 | 100 | 1014.1 |
| 20260905091542 | 71 | 173 | 0.0 | 0.0 | 0.00 | 0.00 | 0.00 | 100 | 1014.0 |
| 20260905091041 | 71 | 173 | 0.0 | 0.0 | 0.00 | 0.00 | 0.00 | 100 | 1014.0 |
| 20260905090546 | 71 | 173 | 0.0 | 0.0 | 0.00 | 0.00 | 0.00 | 100 | 1014.0 |
| 20260905090041 | 72 | 173 | 0.0 | 0.0 | 0.00 | 0.00 | 0.00 | 100 | 1013.9 |
| 20260905085542 | 72 | 173 | 0.0 | 0.0 | 0.00 | 0.00 | 0.00 | 100 | 1013.9 |
| 20260905085041 | 72 | 173 | 0.0 | 0.0 | 0.00 | 0.00 | 0.00 | 100 | 1013.9 |
| 20260905084540 | 72 | 173 | 0.0 | 0.0 | 0.00 | 0.00 | 0.00 | 100 | 1013.9 |
| 20260905084040 | 72 | 173 | 0.0 | 0.0 | 0.00 | 0.00 | 0.00 | 100 | 1013.9 |
| 20260905083540 | 72 | 173 | 0.0 | 0.0 | 0.00 | 0.00 | 0.00 | 100 | 1013.9 |
| 20260905083039 | 72 | 173 | 0.0 | 0.0 | 0.00 | 0.00 | 0.00 | 100 | 1013.9 |
| 20260905082539 | 72 | 173 | 0.0 | 0.0 | 0.00 | 0.00 | 0.00 | 100 | 1014.0 |
| 20260905082039 | 72 | 173 | 0.0 | 0.0 | 0.00 | 0.00 | 0.00 | 100 | 1013.9 |
| 20260905081538 | 72 | 173 | 0.0 | 0.0 | 0.00 | 0.00 | 0.00 | 100 | 1013.9 |
| 20260905081037 | 72 | 173 | 0.0 | 0.0 | 0.00 | 0.00 | 0.00 | 100 | 1014.0 |
| 20260905080537 | 72 | 173 | 0.0 | 0.0 | 0.00 | 0.00 | 0.00 | 100 | 1013.9 |
| 20260905080040 | 72 | 173 | 0.0 | 0.0 | 0.00 | 0.00 | 0.00 | 100 | 1014.0 |
| 20260905075540 | 72 | 173 | 0.0 | 0.0 | 0.00 | 0.00 | 0.00 | 100 | 1013.9 |
| 20260905075038 | 72 | 173 | 0.0 | 0.0 | 0.00 | 0.00 | 0.00 | 100 | 1013.9 |
| 20260905074540 | 72 | 173 | 0.0 | 0.0 | 0.00 | 0.00 | 0.00 | 100 | 1014.0 |
| 20260905074035 | 73 | 173 | 0.0 | 0.0 | 0.00 | 0.00 | 0.00 | 100 | 1014.1 |
| 20260905073537 | 73 | 173 | 0.0 | 0.0 | 0.00 | 0.00 | 0.00 | 100 | 1014.1 |
| 20260905073053 | 73 | 173 | 0.0 | 0.0 | 0.00 | 0.00 | 0.00 | 100 | 1014.1 |
| 20260905072535 | 73 | 173 | 0.0 | 0.0 | 0.00 | 0.00 | 0.00 | 100 | 1014.0 |
| 20260905072034 | 72 | 173 | 0.0 | 0.0 | 0.00 | 0.00 | 0.00 | 100 | 1014.0 |
| 20260905071541 | 73 | 173 | 0.0 | 0.0 | 0.00 | 0.00 | 0.00 | 100 | 1014.0 |
| 20260905071033 | 73 | 173 | 0.0 | 0.0 | 0.00 | 0.00 | 0.00 | 100 | 1014.0 |
| 20260905070533 | 73 | 173 | 0.0 | 0.0 | 0.00 | 0.00 | 0.00 | 100 | 1014.0 |
| 20260905070032 | 73 | 173 | 0.0 | 0.0 | 0.00 | 0.00 | 0.00 | 100 | 1014.1 |
| 20260905065532 | 73 | 173 | 0.0 | 0.0 | 0.00 | 0.00 | 0.00 | 100 | 1014.1 |
| 20260905065031 | 73 | 173 | 0.0 | 0.0 | 0.00 | 0.00 | 0.00 | 100 | 1014.1 |
| 20260905064531 | 73 | 173 | 0.0 | 0.0 | 0.00 | 0.00 | 0.00 | 100 | 1014.1 |
| 20260905064031 | 73 | 173 | 0.0 | 0.0 | 0.00 | 0.00 | 0.00 | 100 | 1014.1 |
| 20260905063530 | 73 | 173 | 0.0 | 0.0 | 0.00 | 0.00 | 0.00 | 100 | 1014.1 |
| 20260905063030 | 73 | 173 | 0.0 | 0.0 | 0.00 | 0.00 | 0.00 | 100 | 1014.1 |
| 20260905062533 | 74 | 173 | 0.0 | 0.0 | 0.00 | 0.00 | 0.00 | 100 | 1014.2 |
| 20260905062029 | 74 | 173 | 0.0 | 0.0 | 0.00 | 0.00 | 0.00 | 100 | 1014.2 |
| 20260905061531 | 74 | 173 | 0.0 | 0.0 | 0.00 | 0.00 | 0.00 | 100 | 1014.3 |
| 20260905061027 | 73 | 173 | 0.0 | 0.0 | 0.00 | 0.00 | 0.00 | 100 | 1014.3 |
| 20260905060527 | 73 | 173 | 0.0 | 0.0 | 0.00 | 0.00 | 0.00 | 100 | 1014.3 |
| 20260905060035 | 73 | 173 | 0.0 | 0.0 | 0.00 | 0.00 | 0.00 | 100 | 1014.3 |
| 20260905055527 | 74 | 173 | 0.0 | 0.0 | 0.00 | 0.00 | 0.00 | 100 | 1014.3 |
| 20260905055027 | 74 | 173 | 0.0 | 0.0 | 0.00 | 0.00 | 0.00 | 100 | 1014.3 |
| 20260905054539 | 74 | 173 | 0.0 | 0.0 | 0.00 | 0.00 | 0.00 | 100 | 1014.4 |
| 20260905054026 | 74 | 173 | 0.0 | 0.9 | 0.00 | 0.00 | 0.00 | 100 | 1014.4 |
| 20260905053527 | 74 | 173 | 0.0 | 0.9 | 0.00 | 0.00 | 0.00 | 100 | 1014.4 |
| 20260905053025 | 74 | 173 | 0.0 | 0.0 | 0.00 | 0.00 | 0.00 | 100 | 1014.4 |
| 20260905052524 | 74 | 173 | 0.0 | 0.0 | 0.00 | 0.00 | 0.00 | 100 | 1014.3 |
| 20260905052024 | 74 | 173 | 0.0 | 0.0 | 0.00 | 0.00 | 0.00 | 100 | 1014.4 |
| 20260905051524 | 74 | 173 | 0.0 | 0.0 | 0.00 | 0.00 | 0.00 | 100 | 1014.5 |
| 20260905051023 | 75 | 173 | 0.0 | 0.0 | 0.00 | 0.00 | 0.00 | 100 | 1014.5 |
| 20260905050522 | 74 | 173 | 0.0 | 0.0 | 0.00 | 0.00 | 0.00 | 100 | 1014.5 |
| 20260905050021 | 74 | 173 | 0.0 | 0.0 | 0.00 | 0.00 | 0.00 | 100 | 1014.4 |
| 20260905045520 | 74 | 173 | 0.0 | 0.0 | 0.00 | 0.00 | 0.00 | 100 | 1014.4 |
| 20260905045020 | 74 | 173 | 0.0 | 0.0 | 0.00 | 0.00 | 0.00 | 100 | 1014.4 |
| 20260905044522 | 75 | 173 | 0.0 | 3.5 | 0.00 | 0.00 | 0.00 | 100 | 1014.4 |
| 20260905044020 | 75 | 173 | 2.6 | 3.5 | 0.00 | 0.00 | 0.00 | 100 | 1014.4 |
| 20260905043520 | 75 | 173 | 0.0 | 0.0 | 0.00 | 0.00 | 0.00 | 100 | 1014.4 |
| 20260905043026 | 75 | 173 | 0.0 | 0.0 | 0.00 | 0.00 | 0.00 | 100 | 1014.4 |
| 20260905042522 | 75 | 173 | 0.0 | 0.0 | 0.00 | 0.00 | 0.00 | 100 | 1014.4 |
| 20260905042019 | 75 | 174 | 0.0 | 0.0 | 0.00 | 0.00 | 0.00 | 100 | 1014.4 |
| 20260905041519 | 75 | 174 | 0.0 | 0.0 | 0.00 | 0.00 | 0.00 | 100 | 1014.4 |
| 20260905041019 | 76 | 173 | 0.0 | 0.0 | 0.00 | 0.00 | 0.00 | 100 | 1014.5 |
| 20260905040521 | 76 | 174 | 0.0 | 0.0 | 0.00 | 0.00 | 0.00 | 100 | 1014.4 |
| 20260905040023 | 76 | 174 | 0.0 | 0.0 | 0.00 | 0.00 | 0.00 | 100 | 1014.4 |
| 20260905035518 | 76 | 173 | 0.0 | 0.0 | 0.00 | 0.00 | 0.00 | 100 | 1014.5 |
| 20260905035018 | 76 | 174 | 0.0 | 0.0 | 0.00 | 0.00 | 0.00 | 100 | 1014.5 |
| 20260905034518 | 76 | 174 | 0.0 | 0.0 | 0.00 | 0.00 | 0.00 | 100 | 1014.6 |
| 20260905034019 | 76 | 174 | 0.0 | 0.0 | 0.00 | 0.00 | 0.00 | 100 | 1014.6 |
| 20260905033518 | 76 | 174 | 0.0 | 0.0 | 0.00 | 0.00 | 0.00 | 100 | 1014.5 |
| 20260905033018 | 76 | 173 | 0.0 | 0.0 | 0.00 | 0.00 | 0.00 | 100 | 1014.5 |
| 20260905032518 | 76 | 174 | 0.0 | 0.0 | 0.00 | 0.00 | 0.00 | 100 | 1014.6 |
| 20260905032017 | 77 | 174 | 0.0 | 0.0 | 0.00 | 0.00 | 0.00 | 100 | 1014.6 |
| 20260905031517 | 77 | 174 | 0.0 | 0.0 | 0.00 | 0.00 | 0.00 | 100 | 1014.7 |
| 20260905031016 | 77 | 173 | 0.0 | 0.0 | 0.00 | 0.00 | 0.00 | 100 | 1014.8 |
| 20260905030517 | 77 | 174 | 0.0 | 0.0 | 0.00 | 0.00 | 0.00 | 99 | 1014.7 |
| 20260905030016 | 77 | 174 | 0.0 | 0.0 | 0.00 | 0.00 | 0.00 | 99 | 1014.8 |
| 20260905025519 | 77 | 174 | 0.0 | 0.0 | 0.00 | 0.00 | 0.00 | 99 | 1014.7 |
| 20260905025016 | 77 | 174 | 0.0 | 0.0 | 0.00 | 0.00 | 0.00 | 99 | 1014.8 |
| 20260905024518 | 78 | 174 | 0.0 | 0.0 | 0.00 | 0.00 | 0.00 | 99 | 1014.8 |
| 20260905024019 | 78 | 174 | 0.0 | 0.0 | 0.00 | 0.00 | 0.00 | 99 | 1014.7 |
| 20260905023516 | 78 | 174 | 0.0 | 0.0 | 0.00 | 0.00 | 0.00 | 99 | 1014.7 |
| 20260905023019 | 78 | 173 | 0.0 | 0.0 | 0.00 | 0.00 | 0.00 | 98 | 1014.6 |
| 20260905022515 | 78 | 174 | 0.0 | 0.0 | 0.00 | 0.00 | 0.00 | 98 | 1014.6 |
| 20260905022017 | 78 | 174 | 0.0 | 0.0 | 0.00 | 0.00 | 0.00 | 98 | 1014.7 |
| 20260905021514 | 79 | 174 | 0.0 | 0.0 | 0.00 | 0.00 | 0.00 | 98 | 1014.6 |
| 20260905021015 | 79 | 174 | 0.0 | 0.0 | 0.00 | 0.00 | 0.00 | 97 | 1014.6 |
| 20260905020514 | 79 | 174 | 0.0 | 0.0 | 0.00 | 0.00 | 0.00 | 97 | 1014.6 |
| 20260905020015 | 80 | 173 | 0.0 | 0.0 | 0.00 | 0.00 | 0.00 | 97 | 1014.6 |
| 20260905015513 | 80 | 174 | 0.0 | 0.0 | 0.00 | 0.00 | 0.00 | 97 | 1014.5 |
| 20260905015016 | 80 | 174 | 0.0 | 0.0 | 0.00 | 0.00 | 0.00 | 97 | 1014.5 |
| 20260905014512 | 80 | 173 | 0.0 | 0.0 | 0.00 | 0.00 | 0.00 | 97 | 1014.4 |
| 20260905014013 | 80 | 174 | 0.0 | 0.0 | 0.00 | 0.00 | 0.00 | 97 | 1014.3 |
| 20260905013514 | 81 | 174 | 0.0 | 0.0 | 0.00 | 0.00 | 0.00 | 96 | 1014.1 |
| 20260905013013 | 81 | 174 | 0.0 | 0.0 | 0.00 | 0.00 | 0.00 | 96 | 1014.2 |
| 20260905012513 | 81 | 174 | 0.0 | 0.0 | 0.00 | 0.00 | 0.00 | 96 | 1014.1 |
| 20260905012012 | 82 | 173 | 0.0 | 0.0 | 0.00 | 0.00 | 0.00 | 96 | 1014.1 |
| 20260905011512 | 82 | 173 | 0.0 | 0.0 | 0.00 | 0.00 | 0.00 | 95 | 1014.1 |
| 20260905011012 | 82 | 174 | 0.0 | 0.0 | 0.00 | 0.00 | 0.00 | 94 | 1014.0 |
| 20260905010513 | 83 | 173 | 0.0 | 0.0 | 0.00 | 0.00 | 0.00 | 95 | 1014.0 |
| 20260905010013 | 83 | 174 | 0.0 | 0.0 | 0.00 | 0.00 | 0.00 | 94 | 1014.0 |
| 20260905005512 | 84 | 174 | 0.0 | 0.0 | 0.00 | 0.00 | 0.00 | 92 | 1013.9 |
| 20260905005012 | 84 | 173 | 0.0 | 0.0 | 0.00 | 0.00 | 0.00 | 92 | 1013.8 |
| 20260905004510 | 85 | 173 | 0.0 | 0.0 | 0.00 | 0.00 | 0.00 | 92 | 1013.6 |
| 20260905004011 | 85 | 173 | 0.0 | 0.0 | 0.00 | 0.00 | 0.00 | 90 | 1013.7 |
| 20260905003511 | 86 | 174 | 0.0 | 0.0 | 0.00 | 0.00 | 0.00 | 89 | 1013.8 |
| 20260905003011 | 87 | 173 | 0.0 | 0.0 | 0.00 | 0.00 | 0.00 | 88 | 1013.7 |
| 20260905002512 | 87 | 173 | 0.0 | 0.0 | 0.00 | 0.00 | 0.00 | 88 | 1013.5 |
| 20260905002010 | 87 | 173 | 0.0 | 0.9 | 0.00 | 0.00 | 0.00 | 88 | 1013.6 |
| 20260905001510 | 88 | 173 | 0.0 | 1.7 | 0.00 | 0.00 | 0.00 | 87 | 1013.6 |
| 20260905001009 | 89 | 173 | 0.0 | 1.7 | 0.00 | 0.00 | 0.00 | 87 | 1013.6 |
| 20260905000509 | 90 | 173 | 0.9 | 1.7 | 0.00 | 0.00 | 0.00 | 84 | 1013.5 |
| 20260905000008 | 90 | 174 | 0.9 | 1.7 | 0.00 | 0.00 | 0.00 | 82 | 1013.5 |
| 20260904235508 | 91 | 173 | 0.0 | 0.9 | 0.00 | 0.00 | 0.00 | 82 | 1013.5 |
| 20260904235008 | 91 | 173 | 0.0 | 1.7 | 0.00 | 0.00 | 0.00 | 80 | 1013.5 |
| 20260904234508 | 92 | 173 | 0.0 | 1.7 | 0.00 | 0.00 | 0.00 | 79 | 1013.5 |
| 20260904234008 | 93 | 173 | 0.0 | 2.6 | 0.00 | 0.00 | 0.00 | 78 | 1013.6 |
| 20260904233507 | 94 | 173 | 0.9 | 2.6 | 0.00 | 0.00 | 0.00 | 77 | 1013.5 |
| 20260904233006 | 94 | 174 | 0.0 | 2.6 | 0.00 | 0.00 | 0.00 | 70 | 1013.5 |
| 20260904232508 | 94 | 174 | 0.9 | 3.5 | 0.00 | 0.00 | 0.00 | 71 | 1013.3 |
| 20260904232005 | 94 | 174 | 1.7 | 4.3 | 0.00 | 0.00 | 0.00 | 72 | 1013.1 |
| 20260904231505 | 93 | 172 | 2.6 | 4.3 | 0.00 | 0.00 | 0.00 | 72 | 1013.1 |
| 20260904231005 | 93 | 171 | 3.5 | 4.3 | 0.00 | 0.00 | 0.00 | 73 | 1013.1 |
| 20260904230504 | 92 | 145 | 1.7 | 4.3 | 0.00 | 0.00 | 0.00 | 74 | 1013.2 |
| 20260904230004 | 92 | 108 | 0.9 | 2.6 | 0.00 | 0.00 | 0.00 | 79 | 1013.2 |
| 20260904225503 | 92 | 108 | 0.0 | 1.7 | 0.00 | 0.00 | 0.00 | 77 | 1013.3 |
| 20260904225003 | 91 | 108 | 0.0 | 0.0 | 0.00 | 0.00 | 0.00 | 76 | 1013.3 |